[[{"header":{"parameterUnit":"m.s-1","parameterCategory":1,"la1":30.2991,"la2":30.254,"lo1":-89.0895,"lo2":-89.0444,"dy":0.0017,"dx":0.0017,"nx":28,"ny":28,"refTime":"2025-07-04T03:00:00:Z","depth":0,"parameterNumber":2,"parameterNumberName":"U-component_of_WINDS"},"data":[0,0,0,0,0,0,0,0,0,0,0,0,0,0,0,0,0,0,0,0,0,0,0,0,0,0,0,0,0,0,0,0,0,0,0,0,0,0,0,0,0,0,0,0,0,0,0,0,0,0,0,0,0,0,0,0,0,0,0.7465,0.7467,0,0.7602,0.7603,0.7605,0.7632,0.7631,0.763,0.7629,0.7772,0.7777,0.7782,0,0,0,0,0,0,0,0,0,0,0,0,0,0.7232,0.7236,0.7465,0.7467,0.7469,0.7601,0.7603,0.7605,0.7632,0.7631,0.763,0.7628,0.7771,0.7776,0.7782,0,0,0,0,0,0,0,0,0,0,0,0,0,0.7347,0.7237,0.7465,0.7498,0.7502,0.7601,0.7603,0.7606,0.7633,0.7631,0.7629,0.7628,0.7769,0.7776,0.7783,0.7859,0,0,0.7805,0.7808,0,0,0,0,0,0,0,0,0.7341,0.7356,0.7491,0.7496,0.7501,0.7598,0.7574,0.7691,0.7633,0.7583,0.7629,0.7627,0.7716,0.7727,0.7757,0.7866,0.7872,0.7806,0.781,0.7813,0.7815,0,0,0,0,0,0,0,0.7333,0.735,0.7519,0.7493,0.7499,0.7507,0.7522,0.7596,0.7657,0.7587,0.759,0.7605,0.7718,0.775,0.776,0.7874,0.7805,0.7812,0.7816,0.7819,0.8055,0.8056,0,0,0,0,0,0,0.7318,0.7343,0.7515,0.7523,0.7415,0.7513,0.7529,0.7569,0.7656,0.7668,0.7607,0.7606,0.7738,0.7752,0.7765,0.7861,0.7813,0.782,0.7824,0.8053,0.8055,0.8057,0,0,0,0,0,0,0.7313,0.7333,0.751,0.7434,0.7457,0.7518,0.7563,0.7572,0.7603,0.7671,0.7682,0.7627,0.7737,0.7755,0.7836,0.7866,0.7823,0.783,0.805,0.8053,0.8056,0.8053,0,0,0,0,0,0,0.7306,0.7331,0.736,0.7434,0.7461,0.7577,0.7565,0.7576,0.7615,0.7616,0.7693,0.7704,0.7737,0.7825,0.7843,0.7876,0.7835,0.8048,0.8052,0.8055,0.805,0.8055,0.8059,0,0,0,0,0,0.7298,0.7354,0.7361,0.7382,0.7498,0.7578,0.7594,0.763,0.7618,0.7648,0.7691,0.7702,0.786,0.7833,0.7853,0.7889,0.8046,0.8051,0.8055,0.8049,0.8054,0.8059,0,0,0,0,0,0,0.7283,0.7365,0.7373,0.7455,0.7509,0.7583,0.7622,0.7635,0.7694,0.7692,0.7736,0.7753,0.7831,0.7868,0.7836,0.7968,0.7953,0.7961,0.7941,0.7947,0.7951,0.7941,0.7841,0,0,0,0,0,0.7289,0.7346,0.7415,0.7481,0.7508,0.756,0.7596,0.7619,0.7677,0.7701,0.775,0.7807,0.787,0.791,0.7972,0.8056,0.8073,0.809,0.8095,0.8098,0.8105,0.8153,0.8162,0.8071,0.8071,0.8071,0,0,0.7303,0.7354,0.7388,0.7479,0.7524,0.7583,0.7579,0.7642,0.7687,0.7711,0.779,0.7828,0.7895,0.7977,0.8016,0.8011,0.8134,0.8104,0.8106,0.8111,0.8158,0.8167,0.8174,0.8074,0.8074,0.8073,0,0,0.7358,0.7402,0.7462,0.7507,0.7574,0.7609,0.7623,0.7694,0.772,0.78,0.7819,0.7874,0.7981,0.8028,0.8066,0.8139,0.8151,0.8158,0.8181,0.8227,0.8234,0.8241,0.8267,0.8276,0.8164,0.8164,0.8164,0,0.7367,0.7456,0.7492,0.7554,0.7594,0.7617,0.7679,0.7721,0.7805,0.7833,0.7825,0.796,0.8006,0.8101,0.8118,0.8148,0.8167,0.8149,0.823,0.8237,0.8244,0.8269,0.8279,0.8165,0.8165,0.8165,0.8165,0,0.7464,0.7525,0.7566,0.7645,0.769,0.7752,0.7798,0.7839,0.7858,0.7894,0.7975,0.8032,0.8105,0.8129,0.8149,0.8227,0.8221,0.8221,0.8207,0.8252,0.8277,0.8287,0.8165,0.8165,0.8165,0.8165,0,0,0.7514,0.7612,0.7627,0.7663,0.7739,0.7788,0.7851,0.7922,0.7957,0.8014,0.8069,0.8159,0.8159,0.8202,0.8227,0.8268,0.8323,0.8263,0.8265,0.8273,0.8413,0.8412,0.8423,0.8331,0.8333,0.8335,0.8407,0,0.7578,0.769,0.7725,0.7819,0.7877,0.79,0.7955,0.8009,0.8044,0.8099,0.8138,0.8201,0.8197,0.8223,0.8264,0.8307,0.8351,0.8303,0.8384,0.8386,0.8366,0.8436,0.8436,0.8501,0.8417,0.8419,0.842,0,0.7669,0.7727,0.7826,0.7895,0.7921,0.797,0.8038,0.809,0.8151,0.8174,0.8221,0.8243,0.8311,0.8293,0.8388,0.8353,0.8389,0.8415,0.8419,0.8428,0.8406,0.8448,0.8523,0.8533,0.8436,0.8434,0.8433,0,0.7695,0.7799,0.7872,0.7903,0.7985,0.8019,0.8055,0.8114,0.8155,0.8214,0.8241,0.8308,0.8345,0.8397,0.8437,0.842,0.8529,0.8513,0.855,0.8549,0.8573,0.8571,0.8655,0.8595,0.8594,0.8594,0.8594,0,0.7764,0.7825,0.7885,0.793,0.7999,0.8038,0.8105,0.8143,0.8196,0.8249,0.8274,0.8324,0.8373,0.843,0.8462,0.8536,0.8552,0.8573,0.8581,0.8571,0.8569,0.8595,0.8592,0.8597,0.8596,0.8596,0.8595,0,0.7806,0.7849,0.793,0.8001,0.802,0.8068,0.8129,0.8174,0.821,0.8278,0.8296,0.8353,0.8421,0.8466,0.8553,0.8575,0.8655,0.8662,0.8634,0.8638,0.8673,0.8669,0.8777,0.8794,0.8722,0.8722,0.8723,0,0.7847,0.7894,0.797,0.8007,0.8043,0.8102,0.8143,0.8184,0.8227,0.83,0.8337,0.8406,0.8464,0.8572,0.8622,0.8689,0.8697,0.8731,0.8708,0.8696,0.8698,0.8695,0.87,0.8735,0.8735,0.8736,0.8736,0,0.7916,0.7935,0.7992,0.8058,0.8106,0.816,0.8214,0.8243,0.8294,0.834,0.8409,0.8454,0.8543,0.8612,0.8683,0.8722,0.8738,0.8743,0.8755,0.8745,0.8727,0.8738,0.8645,0.874,0.874,0.874,0.8739,0.8739,0.7959,0.8002,0.8061,0.8125,0.817,0.822,0.8266,0.8307,0.8365,0.844,0.8461,0.8534,0.8595,0.8692,0.8732,0.879,0.8786,0.8804,0.8809,0.8812,0.8813,0.8718,0.8803,0.8803,0.8803,0.8803,0.8803,0,0.8029,0.8068,0.8127,0.8201,0.8251,0.8261,0.8321,0.8363,0.8426,0.8481,0.8537,0.8617,0.8684,0.8739,0.8809,0.8845,0.8854,0.8862,0.8859,0.8868,0.8812,0.8794,0.8853,0.8853,0.8853,0.8853,0.8853,0.8853,0.8071,0.8144,0.817,0.8266,0.8306,0.8376,0.841,0.8456,0.85,0.8588,0.8644,0.8678,0.8734,0.8808,0.887,0.8884,0.8909,0.8915,0.8931,0.8878,0.8872,0.8867,0.8851,0.892,0.892,0.8983,0.8984,0.8984]},{"header":{"parameterUnit":"m.s-1","parameterCategory":1,"la1":30.2991,"la2":30.254,"lo1":-89.0895,"lo2":-89.0444,"dy":0.0017,"dx":0.0017,"nx":28,"ny":28,"refTime":"2025-07-04T03:00:00:Z","depth":0,"parameterNumber":3,"parameterNumberName":"V-component_of_WINDS"},"data":[0,0,0,0,0,0,0,0,0,0,0,0,0,0,0,0,0,0,0,0,0,0,0,0,0,0,0,0,0,0,0,0,0,0,0,0,0,0,0,0,0,0,0,0,0,0,0,0,0,0,0,0,0,0,0,0,0,0,1.2055,1.2056,0,1.2162,1.2163,1.2164,1.2056,1.2052,1.2047,1.2043,1.2152,1.2159,1.2166,0,0,0,0,0,0,0,0,0,0,0,0,0,1.1753,1.1759,1.2055,1.2056,1.2058,1.2162,1.2163,1.2165,1.2057,1.2052,1.2046,1.2042,1.215,1.2158,1.2167,0,0,0,0,0,0,0,0,0,0,0,0,0,1.1875,1.1762,1.2055,1.2016,1.2014,1.2162,1.2163,1.2165,1.2058,1.2051,1.2045,1.2039,1.2148,1.2158,1.2168,1.2358,0,0,1.2199,1.2204,0,0,0,0,0,0,0,0,1.1868,1.1886,1.2021,1.2019,1.2017,1.2089,1.2097,1.223,1.2059,1.2041,1.2043,1.2036,1.2137,1.2147,1.2181,1.2363,1.2368,1.22,1.2206,1.2211,1.2214,0,0,0,0,0,0,0,1.186,1.1881,1.2097,1.2023,1.2021,1.1992,1.2003,1.2121,1.2123,1.2042,1.2035,1.2049,1.2134,1.2172,1.2183,1.237,1.22,1.2209,1.2215,1.2219,1.2707,1.2713,0,0,0,0,0,0,1.1856,1.1875,1.2094,1.2101,1.1925,1.2003,1.2014,1.2072,1.2122,1.2123,1.2054,1.2043,1.2157,1.2171,1.2186,1.2408,1.2211,1.222,1.2226,1.27,1.2708,1.2715,0,0,0,0,0,0,1.185,1.1877,1.209,1.1985,1.201,1.2015,1.2081,1.2078,1.2115,1.2131,1.213,1.2092,1.2153,1.2172,1.2315,1.2411,1.2225,1.2234,1.2692,1.2702,1.2712,1.2857,0,0,0,0,0,0,1.1842,1.1875,1.1949,1.1988,1.2016,1.2218,1.2087,1.2085,1.2133,1.212,1.2166,1.2168,1.2149,1.23,1.2325,1.2422,1.2242,1.2683,1.2697,1.2709,1.2843,1.2871,1.2894,0,0,0,0,0,1.1831,1.1987,1.1953,1.198,1.2109,1.2224,1.224,1.2216,1.2142,1.2214,1.2223,1.2166,1.2397,1.2316,1.2343,1.2444,1.2677,1.2693,1.2708,1.2832,1.2865,1.2893,0,0,0,0,0,0,1.1961,1.1992,1.1955,1.2128,1.2174,1.2206,1.2297,1.2253,1.2321,1.2306,1.2273,1.2284,1.2434,1.2454,1.2363,1.2628,1.2524,1.2546,1.261,1.2641,1.2666,1.2657,1.2251,0,0,0,0,0,1.2009,1.2101,1.2122,1.2273,1.2298,1.2294,1.2343,1.232,1.2366,1.2385,1.2405,1.2452,1.2533,1.2589,1.2666,1.2846,1.2851,1.2928,1.2953,1.2974,1.2992,1.3083,1.3116,1.2766,1.2765,1.2765,0,0,1.2111,1.2139,1.2199,1.2299,1.2332,1.2426,1.2311,1.2416,1.2484,1.2401,1.2536,1.2552,1.2602,1.2762,1.2834,1.2783,1.309,1.2993,1.301,1.3017,1.3102,1.3135,1.3165,1.2776,1.2774,1.2772,0,0,1.2342,1.2375,1.2501,1.2535,1.2586,1.2581,1.2611,1.2649,1.2656,1.2791,1.2728,1.2808,1.2952,1.2988,1.3026,1.3265,1.3214,1.3292,1.3423,1.3512,1.3539,1.3564,1.3645,1.3675,1.331,1.3311,1.3311,0,1.2462,1.2601,1.2571,1.2679,1.2723,1.2651,1.2776,1.2811,1.2885,1.2916,1.2858,1.3032,1.3061,1.3227,1.3285,1.3319,1.3349,1.3286,1.3538,1.3562,1.3584,1.3661,1.3692,1.3319,1.3318,1.3317,1.3317,0,1.2743,1.284,1.2936,1.3006,1.3061,1.3178,1.3164,1.3223,1.3193,1.3194,1.333,1.3361,1.344,1.3478,1.3452,1.3639,1.3605,1.3543,1.3438,1.3627,1.3698,1.3728,1.3332,1.3329,1.3326,1.3324,0,0,1.3062,1.311,1.3146,1.3174,1.3223,1.3296,1.3408,1.3484,1.3533,1.3586,1.3676,1.3797,1.3738,1.378,1.3757,1.3836,1.4017,1.3763,1.3764,1.3806,1.4219,1.4263,1.4298,1.3984,1.3989,1.3994,1.4214,0,1.3291,1.3484,1.3458,1.3643,1.3729,1.3659,1.3755,1.3794,1.3797,1.3869,1.3872,1.3956,1.3875,1.3899,1.3974,1.398,1.4099,1.3964,1.4064,1.4068,1.4051,1.4336,1.4385,1.4591,1.4242,1.4247,1.425,0,1.3586,1.3646,1.3838,1.3868,1.3903,1.399,1.4055,1.4127,1.4167,1.4163,1.4208,1.4169,1.4277,1.4172,1.4318,1.4226,1.4265,1.4274,1.4281,1.4288,1.4169,1.4347,1.4657,1.4686,1.4295,1.4291,1.4288,0,1.3793,1.3923,1.4053,1.408,1.4119,1.4181,1.42,1.4235,1.428,1.4337,1.4366,1.4435,1.4473,1.4526,1.4505,1.4431,1.4654,1.4548,1.4651,1.4651,1.47,1.4697,1.5016,1.4731,1.473,1.473,1.4729,0,1.4051,1.4171,1.4146,1.4226,1.4356,1.4324,1.4453,1.4464,1.4494,1.4573,1.4517,1.4592,1.4562,1.4634,1.4619,1.4739,1.4758,1.4756,1.4749,1.4759,1.4759,1.4783,1.4767,1.4738,1.4736,1.4735,1.4733,0,1.4305,1.4294,1.443,1.4454,1.4463,1.4558,1.4577,1.4651,1.4648,1.4748,1.4769,1.4764,1.4846,1.4831,1.4922,1.4911,1.5061,1.5039,1.5047,1.5041,1.5143,1.5132,1.5487,1.553,1.522,1.5223,1.5225,0,1.447,1.4559,1.4591,1.4639,1.4662,1.4742,1.4787,1.4757,1.4807,1.4857,1.4923,1.5,1.5059,1.5192,1.5196,1.5263,1.524,1.536,1.525,1.5255,1.5237,1.5231,1.5237,1.5381,1.5385,1.5387,1.539,0,1.476,1.4749,1.4816,1.4881,1.4936,1.4986,1.503,1.5072,1.5046,1.5104,1.5185,1.5231,1.5322,1.5397,1.5459,1.5476,1.5428,1.5424,1.5451,1.546,1.5459,1.5457,1.5103,1.5416,1.5413,1.5411,1.541,1.5409,1.4972,1.5046,1.5079,1.5154,1.5184,1.5225,1.5293,1.5297,1.5365,1.5435,1.5414,1.5506,1.5539,1.5617,1.5641,1.5711,1.5666,1.5707,1.5716,1.5725,1.5736,1.545,1.5723,1.5722,1.5721,1.5721,1.572,0,1.5256,1.5273,1.5342,1.5404,1.5462,1.5411,1.5456,1.5508,1.5589,1.5624,1.5683,1.5774,1.5845,1.5853,1.5919,1.5973,1.5952,1.5991,1.5986,1.5989,1.5774,1.5743,1.6007,1.6007,1.6007,1.6007,1.6007,1.6006,1.5411,1.5532,1.5524,1.5657,1.5672,1.5761,1.579,1.5827,1.5854,1.5958,1.6016,1.602,1.6043,1.611,1.6172,1.6172,1.6197,1.6244,1.6236,1.6034,1.6005,1.5978,1.5948,1.6251,1.6251,1.6444,1.6446,1.6447]}]]